Stations météo

Publicité
Mont-De-Marsan, France (7607): Température de l'air & dewpoint: 15.10.2019 06:00:00 - 21.10.2019 06:00:00 (CEST)Mont-De-Marsan, France (7607): Température de l'air 5cm: 15.10.2019 06:00:00 - 21.10.2019 06:00:00 (CEST)Mont-De-Marsan, France (7607): Température de l'air -20cm & Température de l'air -100cm: 15.10.2019 06:00:00 - 21.10.2019 06:00:00 (CEST)Mont-De-Marsan, France (7607): Vitesse du vent & gusts: 15.10.2019 06:00:00 - 21.10.2019 06:00:00 (CEST)Mont-De-Marsan, France (7607): Direction du vent: 15.10.2019 06:00:00 - 21.10.2019 06:00:00 (CEST)Mont-De-Marsan, France (7607): reduced air pressure: 15.10.2019 06:00:00 - 21.10.2019 06:00:00 (CEST)Mont-De-Marsan, France (7607): visibility: 15.10.2019 06:00:00 - 21.10.2019 06:00:00 (CEST)Mont-De-Marsan, France (7607): Ensoleillement: 15.10.2019 06:00:00 - 21.10.2019 06:00:00 (CEST)Mont-De-Marsan, France (7607): Quantités de précipitations: 15.10.2019 06:00:00 - 21.10.2019 06:00:00 (CEST)
Date & Time tt [°C] td [°C] tt 5cm [°C] tt -20cm [°C] tt -100cm [°C] ff [km/h] ff [knt] fx [km/h] fx [knt] dd ppp [hPa] vv [km] sd [min] rr [mm]
21.10.2019 06:00:00 10,1 9,6 8,6 16,4 18,3 2 1 7 4 S 1017,1 49 0 0,0
21.10.2019 05:00:00 10,3 9,8 9,1 16,5 18,3 5 3 8 4 S 1016,8 50 0 0,0
21.10.2019 04:00:00 10,6 9,8 8,8 16,6 18,3 4 2 18 10 WSW 1016,3 54 0 0,0
21.10.2019 03:00:00 11,1 10,2 10,3 16,8 18,3 12 6 18 10 WSW 1016,1 60 0 0,0
21.10.2019 02:00:00 11,3 10,5 10,7 16,9 18,3 7 4 16 9 WSW 1015,5 60 0 0,0
21.10.2019 01:00:00 11,5 10,7 10,8 17,0 18,3 7 4 13 7 SSW 1015,0 60 0 0,0
21.10.2019 00:00:00 11,6 10,8 10,8 17,1 18,3 9 5 16 9 SW 1014,6 60 0 0,0
20.10.2019 23:00:00 11,6 10,8 11,1 17,3 18,3 11 6 19 11 WSW 1014,3 59 0 0,2
20.10.2019 22:00:00 11,5 10,9 10,9 17,4 18,3 10 5 23 13 W 1013,3 59 0 0,6
20.10.2019 21:00:00 11,9 11,0 11,4 17,5 18,4 9 5 26 14 SW 1012,5 17 0 1,4
20.10.2019 20:00:00 12,7 11,8 12,1 17,5 18,3 16 9 29 16 WSW 1011,4 8 0 0,8
20.10.2019 19:00:00 13,2 12,1 12,7 17,5 18,3 13 7 29 16 W 1009,8 60 0 0,0
20.10.2019 18:00:00 13,9 12,9 13,6 17,4 18,4 19 10 37 20 W 1008,9 32 0 0,2
20.10.2019 17:00:00 15,6 12,9 14,0 17,3 18,4 22 12 39 21 W 1008,1 60 24 0,2
20.10.2019 16:00:00 16,2 13,5 15,4 17,2 18,4 24 13 44 24 W 1007,1 39 19 0,0
20.10.2019 15:00:00 16,9 11,6 17,8 17,1 18,4 30 16 48 26 W 1006,1 60 27 0,0
20.10.2019 14:00:00 16,8 12,7 17,6 17,0 18,4 28 15 47 26 WSW 1005,8 60 9 0,0
20.10.2019 13:00:00 16,9 12,0 17,4 16,9 18,4 23 12 45 24 WSW 1006,0 20 43 0,0
20.10.2019 12:00:00 17,0 13,9 15,0 16,9 18,4 17 9 41 22 W 1004,7 42 35 0,0
20.10.2019 11:00:00 15,2 13,2 14,0 16,9 18,4 22 12 48 26 SW 1003,8 27 9 0,0
20.10.2019 10:00:00 14,7 12,9 13,7 17,0 18,3 11 6 22 12 S 1003,6 60 0 0,2
20.10.2019 09:00:00 14,2 13,4 13,1 17,0 18,3 9 5 21 11 SW 1003,3 57 0 0,0
20.10.2019 08:00:00 13,7 13,4 12,7 17,1 18,4 5 3 12 6 S 1002,4 17 0 0,0
20.10.2019 07:00:00 13,5 13,2 12,5 17,2 18,4 6 4 15 8 SW 1001,5 18 0 0,0
20.10.2019 06:00:00 13,6 13,3 13,2 17,3 18,4 12 6 30 16 E 1000,1 10 0 1,0
20.10.2019 05:00:00 13,5 13,2 13,1 17,4 18,4 4 2 13 7 NE 1001,7 6 0 1,2
20.10.2019 04:00:00 13,4 12,9 12,9 17,5 18,4 0 0 10 6 N 1002,2 6 0 0,4
20.10.2019 03:00:00 13,6 13,1 13,0 17,6 18,4 3 2 10 5 W 1002,6 17 0 0,0
20.10.2019 02:00:00 13,7 13,1 12,9 17,7 18,4 0 0 6 3 N 1002,6 20 0 0,2
20.10.2019 01:00:00 13,5 12,6 12,8 17,9 18,4 4 2 12 7 NE 1002,7 37 0 0,0
20.10.2019 00:00:00 13,7 12,9 13,1 18,0 18,4 9 5 13 7 WNW 1003,0 35 0 0,0
19.10.2019 23:00:00 13,9 13,3 11,8 18,1 18,4 2 1 9 5 NE 1002,9 38 0 0,0
19.10.2019 22:00:00 13,6 13,0 11,2 18,2 18,4 5 3 8 4 NNW 1003,3 40 0 0,0
19.10.2019 21:00:00 14,4 13,3 11,4 18,2 18,4 4 2 10 6 NE 1003,6 38 0 0,0
19.10.2019 20:00:00 15,0 13,4 12,9 18,2 18,4 7 4 12 6 NE 1003,5 50 0 0,0
19.10.2019 19:00:00 17,1 13,6 15,4 18,1 18,5 6 3 13 7 NE 1003,8 60 11 0,0
19.10.2019 18:00:00 20,5 13,0 20,7 18,0 18,6 6 4 13 7 E 1004,2 60 31 0,0
19.10.2019 17:00:00 20,7 13,6 19,9 17,8 18,6 4 2 9 5 E 1004,5 37 9 0,0
19.10.2019 16:00:00 20,5 12,2 20,5 17,4 18,7 6 4 11 6 WNW 1004,9 58 21 0,0
19.10.2019 15:00:00 21,5 11,8 22,1 17,2 18,7 7 4 18 10 NW 1005,0 60 19 0,0
19.10.2019 14:00:00 21,2 11,8 23,9 16,9 18,9 6 4 16 9 WNW 1006,1 47 51 0,0
19.10.2019 13:00:00 19,4 14,9 19,3 16,8 18,6 4 2 11 6 ESE 1006,7 46 36 0,0
19.10.2019 12:00:00 17,3 14,2 16,8 16,7 18,4 6 3 12 7 ESE 1007,5 51 41 0,0
19.10.2019 11:00:00 15,7 13,9 14,8 16,7 18,5 8 5 17 9 SE 1007,8 34 27 0,0
19.10.2019 10:00:00 14,2 13,7 13,5 16,7 18,4 6 4 9 5 ENE 1007,5 20 0 0,0
19.10.2019 09:00:00 13,9 13,1 13,2 16,8 18,5 3 2 16 9 E 1007,7 20 0 0,0
19.10.2019 08:00:00 14,0 13,5 13,2 16,8 18,4 9 5 14 8 SE 1007,8 11 0 1,0
19.10.2019 07:00:00 13,7 13,1 13,2 16,9 18,5 0 0 7 4 N 1008,3 40 0 0,0
19.10.2019 06:00:00 13,9 13,6 12,9 17,0 18,5 5 3 8 4 SE 1008,3 26 0 0,0
19.10.2019 05:00:00 13,9 13,3 12,9 17,1 18,5 0 0 12 6 N 1008,7 50 0 0,2
19.10.2019 04:00:00 14,6 13,8 13,7 17,2 18,4 7 4 16 9 SSE 1009,3 10 0 3,2
19.10.2019 03:00:00 13,8 13,5 13,4 17,4 18,5 4 2 15 8 SSE 1010,4 3,0 0 5,5
19.10.2019 02:00:00 13,5 13,2 12,9 17,5 18,5 5 3 8 4 NNE 1010,0 8 0 1,6
19.10.2019 01:00:00 13,2 12,9 11,7 17,6 18,5 6 3 8 4 ENE 1010,3 33 0 0,0
19.10.2019 00:00:00 13,2 12,7 11,8 17,7 18,5 4 2 5 3 E 1010,9 16 0 0,0
18.10.2019 23:00:00 13,6 12,8 12,3 17,7 18,5 0 0 7 4 N 1011,6 42 0 0,0
18.10.2019 22:00:00 15,3 13,1 14,4 17,8 18,6 2 1 9 5 NE 1011,9 60 0 0,0
18.10.2019 21:00:00 15,8 13,6 15,1 17,8 18,6 5 3 8 4 ESE 1012,4 13 0 0,0
18.10.2019 20:00:00 16,4 13,9 15,8 17,7 18,6 4 2 5 3 ESE 1013,1 19 0 0,0
18.10.2019 19:00:00 17,0 13,5 16,6 17,6 18,6 3 1 11 6 SE 1013,4 13 0 0,0
18.10.2019 18:00:00 17,7 13,0 17,8 17,5 18,6 5 3 11 6 S 1014,1 16 0 0,0
18.10.2019 17:00:00 18,2 13,3 19,2 17,3 18,6 6 3 13 7 S 1014,6 60 2 0,0
18.10.2019 16:00:00 18,3 13,4 19,5 17,1 18,6 7 4 14 8 SW 1014,9 54 0 0,0
18.10.2019 15:00:00 18,2 14,3 20,3 17,0 18,6 6 3 13 7 S 1015,1 54 0 0,0
18.10.2019 14:00:00 17,6 14,9 16,6 16,8 18,6 7 4 13 7 SSE 1015,9 43 12 0,0
18.10.2019 13:00:00 16,1 14,8 15,7 16,8 18,6 6 4 14 8 S 1016,7 52 0 0,0
18.10.2019 12:00:00 15,4 14,4 15,0 16,8 18,6 5 3 8 5 SSE 1016,7 32 0 0,0
18.10.2019 11:00:00 14,7 14,2 14,4 16,8 18,6 6 3 14 8 S 1016,7 26 0 0,2
18.10.2019 10:00:00 14,5 14,0 14,1 16,9 18,6 5 3 13 7 SW 1016,7 9 0 0,4
18.10.2019 09:00:00 14,2 13,9 13,5 17,0 18,6 13 7 18 10 W 1016,4 2,5 0 2,6
18.10.2019 08:00:00 13,7 13,4 13,3 17,1 18,6 4 2 8 5 WNW 1015,4 8 0 0,6
18.10.2019 07:00:00 13,6 13,3 12,9 17,2 18,6 6 3 11 6 W 1015,2 3,1 0 1,8
18.10.2019 06:00:00 13,0 12,8 11,5 17,3 18,6 0 0 8 4 N 1014,3 32 0 0,0
18.10.2019 05:00:00 12,2 11,9 11,1 17,4 18,6 5 3 9 5 W 1014,3 17 0 0,0
18.10.2019 04:00:00 12,6 12,3 11,2 17,6 18,7 4 2 9 5 W 1014,4 27 0 0,0
18.10.2019 03:00:00 12,9 12,4 10,9 17,7 18,6 7 4 9 5 W 1014,3 20 0 0,0
18.10.2019 02:00:00 13,6 13,0 12,8 17,8 18,7 4 2 8 4 W 1014,4 60 0 0,0
18.10.2019 01:00:00 13,7 13,1 11,3 17,9 18,7 2 1 4 2 ENE 1014,1 60 0 0,0
18.10.2019 00:00:00 14,1 13,3 11,5 18,0 18,7 0 0 7 4 N 1014,5 60 0 0,0
17.10.2019 23:00:00 14,2 12,8 12,2 18,1 18,7 5 3 16 8 WNW 1015,0 60 0 0,0
17.10.2019 22:00:00 15,2 13,4 12,5 18,2 18,7 4 2 11 6 N 1014,8 60 0 0,0
17.10.2019 21:00:00 16,5 13,8 14,1 18,2 18,7 4 2 10 5 N 1014,8 60 0 0,0
17.10.2019 20:00:00 18,2 14,9 17,0 18,1 18,7 4 2 9 5 E 1014,6 60 0 0,0
17.10.2019 19:00:00 19,9 14,0 19,1 17,9 18,8 4 2 13 7 NNW 1014,2 60 1 0,0
17.10.2019 18:00:00 21,6 12,7 21,7 17,7 18,8 8 4 21 11 W 1013,9 60 33 0,0
17.10.2019 17:00:00 22,2 12,4 23,3 17,4 18,9 4 2 16 9 WNW 1013,9 60 42 0,0
17.10.2019 16:00:00 21,6 13,2 22,8 17,1 18,8 11 6 25 14 WSW 1014,1 60 8 0,0
17.10.2019 15:00:00 21,9 13,5 24,7 16,8 18,7 13 7 24 13 W 1014,4 34 54 0,0
17.10.2019 14:00:00 20,1 13,8 23,7 16,6 18,8 4 2 14 8 S 1015,0 60 49 0,0
17.10.2019 13:00:00 18,3 13,8 16,5 16,5 18,8 10 5 17 9 SSE 1015,2 60 33 0,0
17.10.2019 12:00:00 16,2 13,3 15,6 16,5 18,8 10 5 16 9 SSE 1015,2 60 1 0,0
17.10.2019 11:00:00 14,9 13,8 14,4 16,4 18,8 7 4 10 6 ESE 1014,7 51 2 0,0
17.10.2019 10:00:00 13,9 13,4 13,0 16,5 18,8 7 4 9 5 E 1014,6 43 0 1,0
17.10.2019 09:00:00 13,4 12,5 12,7 16,5 18,8 2 1 6 4 ESE 1014,7 8 0 2,0
17.10.2019 08:00:00 13,6 12,2 12,7 16,6 18,8 5 3 18 10 SSE 1014,4 9 0 0,4
17.10.2019 07:00:00 15,5 11,3 11,9 16,6 18,8 9 5 23 12 SSW 1013,7 18 0 0,0
17.10.2019 06:00:00 12,7 11,3 11,8 16,8 18,8 6 3 14 7 ESE 1013,1 57 0 0,0
17.10.2019 05:00:00 12,8 11,4 11,9 16,8 18,9 8 4 12 7 ESE 1013,2 60 0 0,4
17.10.2019 04:00:00 13,1 10,6 12,4 16,9 18,9 6 4 11 6 ENE 1013,5 53 0 0,0
17.10.2019 03:00:00 13,0 10,9 11,9 17,0 18,9 8 5 11 6 E 1013,1 60 0 0,0
17.10.2019 02:00:00 12,3 10,9 10,9 17,1 18,9 8 4 9 5 E 1013,6 60 0 0,0
17.10.2019 01:00:00 13,4 10,7 11,1 17,1 18,9 0 0 8 4 N 1014,1 10 0 0,0
17.10.2019 00:00:00 15,1 11,3 13,6 17,2 18,9 4 2 7 4 E 1014,2 60 0 0,0
16.10.2019 23:00:00 15,1 11,1 12,5 17,2 18,9 3 1 6 3 ENE 1014,3 60 0 0,0
16.10.2019 22:00:00 16,6 11,7 15,5 17,2 19,0 0 0 13 7 N 1014,2 60 0 0,0
16.10.2019 21:00:00 17,4 10,5 16,1 17,1 19,0 8 4 11 6 ESE 1013,8 60 0 0,0
16.10.2019 20:00:00 17,0 12,3 16,0 17,0 19,0 7 4 10 5 ESE 1013,6 60 0 0,0
16.10.2019 19:00:00 19,7 10,9 17,5 16,9 19,0 4 2 13 7 SE 1013,4 19 22 0,0
16.10.2019 18:00:00 21,9 9,1 21,7 16,7 19,0 7 4 13 7 WSW 1013,5 60 27 0,0
16.10.2019 17:00:00 21,2 9,1 22,5 16,5 19,0 10 5 20 11 WSW 1013,9 60 14 0,0
16.10.2019 16:00:00 21,0 8,3 22,3 16,2 19,0 14 8 26 14 WSW 1014,2 60 0 0,0
16.10.2019 15:00:00 20,4 9,0 20,9 16,0 19,0 9 5 21 12 SW 1014,2 47 0 0,0
16.10.2019 14:00:00 20,9 8,2 23,2 15,7 19,0 14 8 26 14 SW 1014,6 60 15 0,0
16.10.2019 13:00:00 20,8 9,1 22,0 15,5 19,1 14 8 27 15 SSW 1015,3 60 47 0,0
16.10.2019 12:00:00 19,0 8,9 20,5 15,5 19,1 6 4 18 10 SSW 1015,6 60 53 0,0
16.10.2019 11:00:00 15,4 9,7 12,4 15,6 19,1 5 3 9 5 ESE 1015,8 60 54 0,0
16.10.2019 10:00:00 10,2 9,3 8,1 15,7 19,1 5 3 9 5 E 1016,0 60 30 0,0
16.10.2019 09:00:00 7,9 7,6 5,6 15,9 19,1 8 5 12 6 E 1015,7 60 11 0,0
16.10.2019 08:00:00 6,6 6,3 5,2 16,1 19,1 6 3 10 5 E 1015,8 60 0 0,0
16.10.2019 07:00:00 6,5 6,2 5,1 16,3 19,1 8 5 9 5 E 1015,8 60 0 0,0
16.10.2019 06:00:00 6,4 6,1 5,3 16,5 19,1 7 4 9 5 E 1016,0 60 0 0,0
16.10.2019 05:00:00 7,2 6,9 5,5 16,6 19,1 5 3 8 5 E 1016,3 59 0 0,0
16.10.2019 04:00:00 7,2 6,9 5,7 16,9 19,1 7 4 9 5 E 1016,7 55 0 0,0
16.10.2019 03:00:00 7,0 6,6 5,3 17,0 19,1 6 3 7 4 E 1017,1 56 0 0,0
16.10.2019 02:00:00 8,4 8,1 6,8 17,2 19,1 5 3 8 4 E 1017,4 58 0 0,0
16.10.2019 01:00:00 8,9 8,8 6,9 17,4 19,1 4 2 10 5 E 1017,6 57 0 0,0
16.10.2019 00:00:00 9,0 8,7 7,7 17,5 19,2 7 4 10 5 ENE 1018,1 54 0 0,0
15.10.2019 23:00:00 9,3 8,8 7,6 17,7 19,1 6 3 7 4 ENE 1018,4 0,6 0 0,0
15.10.2019 22:00:00 10,9 10,6 8,3 17,8 19,1 4 2 6 3 ESE 1018,5 2,4 0 0,0
15.10.2019 21:00:00 11,8 11,3 9,3 17,9 19,2 4 2 6 4 E 1018,3 19 0 0,0
15.10.2019 20:00:00 13,2 12,1 10,1 17,8 19,2 2 1 7 4 ESE 1018,3 19 0 0,0
15.10.2019 19:00:00 14,1 12,3 13,3 17,8 19,2 4 2 9 5 W 1018,1 58 2 0,0
15.10.2019 18:00:00 13,9 12,6 13,4 17,7 19,2 6 3 42 23 SSW 1018,0 15 8 0,6
15.10.2019 17:00:00 15,6 11,8 14,2 17,6 19,2 17 9 35 19 WSW 1017,7 17 18 0,0
15.10.2019 16:00:00 17,1 11,4 16,8 17,4 19,2 26 14 41 22 WSW 1017,4 60 35 0,2
15.10.2019 15:00:00 17,1 12,6 15,6 17,3 19,2 19 10 35 19 WSW 1017,1 60 37 0,0
15.10.2019 14:00:00 13,8 12,4 12,8 17,3 19,2 12 7 28 15 SW 1017,7 20 4 1,4
15.10.2019 13:00:00 12,8 11,5 12,7 17,3 19,2 22 12 42 23 SW 1018,0 3,6 0 1,2
15.10.2019 12:00:00 14,3 11,4 12,5 17,4 19,2 19 10 35 19 SW 1017,5 60 54 0,2
15.10.2019 11:00:00 11,9 10,5 11,1 17,5 19,2 14 8 39 21 SSW 1017,0 60 9 0,6
15.10.2019 10:00:00 11,6 10,5 10,6 17,7 19,2 18 10 34 19 SW 1016,5 47 21 0,2
15.10.2019 09:00:00 11,2 10,3 10,0 17,8 19,2 19 10 32 18 SW 1015,3 6 7 0,6
15.10.2019 08:00:00 11,1 10,2 10,3 18,0 19,2 14 8 29 15 SSW 1014,5 20 0 0,0
15.10.2019 07:00:00 11,6 10,3 10,6 18,1 19,2 15 8 29 15 WSW 1014,2 19 0 0,7
15.10.2019 06:00:00 11,4 10,5 10,8 18,3 19,2 12 7 27 14 SW 1013,8 4,4 0 0,6

tt = Température de l'air
td = dewpoint
tt 5cm = Température de l'air 5cm
tt -20cm = Température de l'air -20cm
tt -100cm = Température de l'air -100cm
ff = Vitesse du vent
fx = gusts
dd = Direction du vent
ppp = reduced air pressure
vv = visibility
sd = Ensoleillement
rr = Quantités de précipitations

stations d'obs. à proximité